| time (UTC) | temp F | wind direction | speed MPH | gust MPH | rain 1hr in | rain 24hr in | rain mn in | humidity % | barometer mb |
| 20260902000041 | 67 | 218 | 1.0 | 3.0 | 0.00 | 0.00 | 0.00 | 72 | 1010.1 |
| 20260901235522 | 67 | 345 | 0.0 | 5.0 | 0.00 | 0.00 | 0.00 | 73 | 1010.0 |
| 20260901235020 | 67 | 0 | 1.0 | 6.0 | 0.00 | 0.00 | 0.00 | 73 | 1010.1 |
| 20260901234540 | 67 | 128 | 1.0 | 7.0 | 0.00 | 0.00 | 0.00 | 73 | 1010.0 |
| 20260901234020 | 67 | 208 | 3.0 | 7.0 | 0.00 | 0.00 | 0.00 | 73 | 1010.1 |
| 20260901233526 | 67 | 250 | 1.0 | 3.0 | 0.00 | 0.00 | 0.00 | 74 | 1010.2 |
| 20260901233040 | 67 | 0 | 1.0 | 3.0 | 0.00 | 0.00 | 0.00 | 76 | 1010.3 |
| 20260901232519 | 66 | 67 | 0.0 | 3.0 | 0.00 | 0.00 | 0.00 | 74 | 1010.2 |
| 20260901232023 | 66 | 308 | 0.0 | 3.0 | 0.00 | 0.00 | 0.00 | 74 | 1010.3 |
| 20260901231541 | 66 | 213 | 1.0 | 4.0 | 0.00 | 0.00 | 0.00 | 74 | 1010.2 |
| 20260901231018 | 66 | 174 | 0.0 | 5.0 | 0.00 | 0.00 | 0.00 | 75 | 1010.2 |
| 20260901230518 | 66 | 323 | 1.0 | 5.0 | 0.00 | 0.00 | 0.00 | 74 | 1010.3 |
| 20260901230050 | 66 | 257 | 1.0 | 9.0 | 0.00 | 0.00 | 0.00 | 74 | 1010.2 |
| 20260901225521 | 66 | 180 | 1.0 | 9.0 | 0.00 | 0.00 | 0.00 | 75 | 1010.2 |
| 20260901225021 | 66 | 5 | 2.0 | 9.0 | 0.00 | 0.00 | 0.00 | 75 | 1010.2 |
| 20260901224539 | 66 | 240 | 1.0 | 4.0 | 0.00 | 0.00 | 0.00 | 77 | 1010.2 |
| 20260901224016 | 66 | 16 | 1.0 | 5.0 | 0.00 | 0.00 | 0.00 | 77 | 1010.1 |
| 20260901223523 | 66 | 202 | 0.0 | 5.0 | 0.00 | 0.00 | 0.00 | 77 | 1010.1 |
| 20260901223100 | 66 | 196 | 2.0 | 5.0 | 0.00 | 0.00 | 0.00 | 77 | 1010.2 |
| 20260901222517 | 66 | 175 | 1.0 | 3.0 | 0.00 | 0.00 | 0.00 | 77 | 1010.3 |
| 20260901222021 | 65 | 258 | 1.0 | 2.0 | 0.00 | 0.00 | 0.00 | 78 | 1010.2 |
| 20260901221542 | 65 | 158 | 0.0 | 2.0 | 0.00 | 0.00 | 0.00 | 79 | 1010.2 |
| 20260901221021 | 64 | 246 | 0.0 | 2.0 | 0.00 | 0.00 | 0.00 | 78 | 1010.2 |
| 20260901220524 | 64 | 313 | 0.0 | 2.0 | 0.00 | 0.00 | 0.00 | 80 | 1010.2 |
| 20260901220048 | 63 | 0 | 0.0 | 2.0 | 0.00 | 0.00 | 0.00 | 79 | 1010.3 |
| 20260901215525 | 63 | 0 | 0.0 | 2.0 | 0.00 | 0.00 | 0.00 | 80 | 1010.4 |
| 20260901215020 | 63 | 242 | 0.0 | 5.0 | 0.00 | 0.00 | 0.00 | 79 | 1010.4 |
| 20260901214540 | 63 | 0 | 1.0 | 5.0 | 0.00 | 0.00 | 0.00 | 79 | 1010.4 |
| 20260901214026 | 63 | 263 | 1.0 | 4.0 | 0.00 | 0.00 | 0.00 | 80 | 1010.5 |
| 20260901213521 | 63 | 0 | 0.0 | 2.0 | 0.00 | 0.00 | 0.00 | 81 | 1010.6 |
| 20260901213038 | 63 | 0 | 0.0 | 2.0 | 0.00 | 0.00 | 0.00 | 79 | 1010.5 |
| 20260901212518 | 64 | 84 | 1.0 | 5.0 | 0.00 | 0.00 | 0.00 | 79 | 1010.6 |
| 20260901212028 | 65 | 225 | 2.0 | 5.0 | 0.00 | 0.00 | 0.00 | 78 | 1010.6 |
| 20260901211535 | 65 | 213 | 1.0 | 3.0 | 0.00 | 0.00 | 0.00 | 77 | 1010.5 |
| 20260901211020 | 65 | 236 | 1.0 | 4.0 | 0.00 | 0.00 | 0.00 | 76 | 1010.4 |
| 20260901210522 | 66 | 0 | 0.0 | 4.0 | 0.00 | 0.00 | 0.00 | 75 | 1010.4 |
| 20260901210046 | 66 | 236 | 0.0 | 5.0 | 0.00 | 0.00 | 0.00 | 75 | 1010.4 |
| 20260901205521 | 65 | 240 | 1.0 | 5.0 | 0.00 | 0.00 | 0.00 | 75 | 1010.5 |
| 20260901205022 | 65 | 220 | 0.0 | 3.0 | 0.00 | 0.00 | 0.00 | 76 | 1010.5 |
| 20260901204543 | 65 | 281 | 0.0 | 5.0 | 0.00 | 0.00 | 0.00 | 76 | 1010.4 |
| 20260901204020 | 65 | 285 | 0.0 | 5.0 | 0.00 | 0.00 | 0.00 | 76 | 1010.6 |
| 20260901203518 | 64 | 352 | 1.0 | 5.0 | 0.00 | 0.00 | 0.00 | 76 | 1010.6 |
| 20260901203053 | 64 | 22 | 2.0 | 5.0 | 0.00 | 0.00 | 0.00 | 77 | 1010.6 |
| 20260901202518 | 64 | 0 | 0.0 | 4.0 | 0.00 | 0.00 | 0.00 | 77 | 1010.7 |
| 20260901202021 | 64 | 230 | 0.0 | 4.0 | 0.00 | 0.00 | 0.00 | 77 | 1010.7 |
| 20260901201535 | 64 | 0 | 1.0 | 3.0 | 0.00 | 0.00 | 0.00 | 76 | 1010.6 |
| 20260901201021 | 64 | 229 | 0.0 | 3.0 | 0.00 | 0.00 | 0.00 | 77 | 1010.7 |
| 20260901200521 | 64 | 236 | 0.0 | 7.0 | 0.00 | 0.00 | 0.00 | 77 | 1010.6 |
| 20260901200053 | 64 | 200 | 0.0 | 7.0 | 0.00 | 0.00 | 0.00 | 76 | 1010.6 |
| 20260901195522 | 65 | 252 | 1.0 | 6.0 | 0.00 | 0.00 | 0.00 | 76 | 1010.6 |
| 20260901195019 | 65 | 0 | 0.0 | 6.0 | 0.00 | 0.00 | 0.00 | 75 | 1010.7 |
| 20260901194544 | 65 | 0 | 1.0 | 4.0 | 0.00 | 0.00 | 0.00 | 75 | 1010.7 |
| 20260901194021 | 65 | 215 | 1.0 | 4.0 | 0.00 | 0.00 | 0.00 | 75 | 1010.6 |
| 20260901193516 | 65 | 0 | 1.0 | 4.0 | 0.00 | 0.00 | 0.00 | 75 | 1010.6 |
| 20260901193042 | 65 | 340 | 0.0 | 4.0 | 0.00 | 0.00 | 0.00 | 75 | 1010.6 |
| 20260901192518 | 65 | 239 | 1.0 | 4.0 | 0.00 | 0.00 | 0.00 | 75 | 1010.6 |
| 20260901192021 | 65 | 0 | 0.0 | 4.0 | 0.00 | 0.00 | 0.00 | 75 | 1010.7 |
| 20260901191540 | 65 | 234 | 1.0 | 5.0 | 0.00 | 0.00 | 0.00 | 75 | 1010.6 |
| 20260901191022 | 65 | 225 | 2.0 | 7.0 | 0.00 | 0.00 | 0.00 | 75 | 1010.6 |
| 20260901190520 | 65 | 233 | 1.0 | 11.0 | 0.00 | 0.00 | 0.00 | 75 | 1010.7 |
| 20260901190100 | 65 | 209 | 2.0 | 11.0 | 0.00 | 0.00 | 0.00 | 75 | 1010.7 |
| 20260901185521 | 65 | 235 | 1.0 | 9.0 | 0.00 | 0.00 | 0.00 | 75 | 1010.7 |
| 20260901185023 | 66 | 198 | 2.0 | 9.0 | 0.00 | 0.00 | 0.00 | 74 | 1010.8 |
| 20260901184544 | 66 | 238 | 2.0 | 8.0 | 0.00 | 0.00 | 0.00 | 74 | 1010.7 |
| 20260901184023 | 66 | 221 | 1.0 | 8.0 | 0.00 | 0.00 | 0.00 | 74 | 1010.8 |
| 20260901183523 | 66 | 237 | 1.0 | 8.0 | 0.00 | 0.00 | 0.00 | 73 | 1010.6 |
| 20260901183036 | 66 | 244 | 3.0 | 9.0 | 0.00 | 0.00 | 0.00 | 73 | 1010.6 |
| 20260901182517 | 66 | 191 | 2.0 | 9.0 | 0.00 | 0.00 | 0.00 | 73 | 1010.6 |
| 20260901182020 | 67 | 240 | 1.0 | 8.0 | 0.00 | 0.00 | 0.00 | 74 | 1010.6 |
| 20260901181537 | 67 | 263 | 1.0 | 4.0 | 0.00 | 0.00 | 0.00 | 73 | 1010.6 |
| 20260901181018 | 67 | 126 | 2.0 | 4.0 | 0.00 | 0.00 | 0.00 | 74 | 1010.5 |
| 20260901180522 | 67 | 244 | 1.0 | 6.0 | 0.00 | 0.00 | 0.00 | 74 | 1010.4 |
| 20260901180037 | 67 | 181 | 0.0 | 6.0 | 0.00 | 0.00 | 0.00 | 74 | 1010.5 |
| 20260901175522 | 66 | 137 | 2.0 | 5.0 | 0.00 | 0.00 | 0.00 | 75 | 1010.3 |
| 20260901175021 | 66 | 235 | 2.0 | 10.0 | 0.00 | 0.00 | 0.00 | 75 | 1010.3 |
| 20260901174542 | 66 | 243 | 1.0 | 10.0 | 0.00 | 0.00 | 0.00 | 75 | 1010.4 |
| 20260901174021 | 66 | 262 | 1.0 | 8.0 | 0.00 | 0.00 | 0.00 | 75 | 1010.4 |
| 20260901173521 | 66 | 0 | 1.0 | 4.0 | 0.00 | 0.00 | 0.00 | 76 | 1010.4 |
| 20260901173037 | 65 | 279 | 0.0 | 8.0 | 0.00 | 0.00 | 0.00 | 76 | 1010.3 |
| 20260901172521 | 65 | 232 | 1.0 | 8.0 | 0.00 | 0.00 | 0.00 | 76 | 1010.3 |
| 20260901172024 | 65 | 237 | 2.0 | 8.0 | 0.00 | 0.00 | 0.00 | 77 | 1010.4 |
| 20260901171536 | 64 | 227 | 2.0 | 4.0 | 0.00 | 0.00 | 0.00 | 77 | 1010.4 |
| 20260901171021 | 64 | 233 | 1.0 | 3.0 | 0.00 | 0.00 | 0.00 | 77 | 1010.4 |
| 20260901170519 | 64 | 0 | 0.0 | 4.0 | 0.00 | 0.00 | 0.00 | 78 | 1010.3 |
| 20260901170041 | 63 | 225 | 1.0 | 4.0 | 0.00 | 0.00 | 0.00 | 78 | 1010.3 |
| 20260901165518 | 63 | 239 | 0.0 | 2.0 | 0.00 | 0.00 | 0.00 | 79 | 1010.4 |
| 20260901165025 | 63 | 250 | 1.0 | 7.0 | 0.00 | 0.00 | 0.00 | 79 | 1010.4 |
| 20260901164545 | 63 | 234 | 2.0 | 7.0 | 0.00 | 0.00 | 0.00 | 79 | 1010.4 |
| 20260901164021 | 63 | 231 | 2.0 | 6.0 | 0.00 | 0.00 | 0.00 | 79 | 1010.4 |
| 20260901163520 | 63 | 225 | 1.0 | 6.0 | 0.00 | 0.00 | 0.00 | 79 | 1010.4 |
| 20260901163040 | 63 | 211 | 1.0 | 7.0 | 0.00 | 0.00 | 0.00 | 80 | 1010.3 |
| 20260901162519 | 63 | 0 | 0.0 | 8.0 | 0.00 | 0.00 | 0.00 | 80 | 1010.4 |
| 20260901162019 | 62 | 217 | 2.0 | 8.0 | 0.00 | 0.00 | 0.00 | 79 | 1010.4 |
| 20260901161539 | 62 | 238 | 2.0 | 7.0 | 0.00 | 0.00 | 0.00 | 80 | 1010.4 |
| 20260901161021 | 62 | 248 | 1.0 | 5.0 | 0.00 | 0.00 | 0.00 | 81 | 1010.5 |
| 20260901160525 | 62 | 210 | 1.0 | 8.0 | 0.00 | 0.00 | 0.00 | 81 | 1010.6 |
| 20260901160039 | 61 | 224 | 3.0 | 8.0 | 0.00 | 0.00 | 0.00 | 81 | 1010.6 |
| 20260901155521 | 61 | 239 | 2.0 | 8.0 | 0.00 | 0.00 | 0.00 | 82 | 1010.5 |
| 20260901155021 | 61 | 232 | 2.0 | 7.0 | 0.00 | 0.00 | 0.00 | 83 | 1010.5 |
| 20260901154540 | 61 | 0 | 0.0 | 3.0 | 0.00 | 0.00 | 0.00 | 85 | 1010.4 |
| 20260901154018 | 60 | 248 | 0.0 | 2.0 | 0.00 | 0.00 | 0.00 | 86 | 1010.4 |
| 20260901153517 | 60 | 0 | 0.0 | 3.0 | 0.00 | 0.00 | 0.00 | 87 | 1010.6 |
| 20260901153043 | 59 | 0 | 0.0 | 3.0 | 0.00 | 0.00 | 0.00 | 88 | 1010.6 |
| 20260901152520 | 59 | 0 | 0.0 | 3.0 | 0.00 | 0.00 | 0.00 | 88 | 1010.7 |
| 20260901152018 | 58 | 236 | 1.0 | 3.0 | 0.00 | 0.00 | 0.00 | 89 | 1010.7 |
| 20260901151535 | 58 | 0 | 0.0 | 3.0 | 0.00 | 0.00 | 0.00 | 89 | 1010.7 |
| 20260901151023 | 58 | 221 | 0.0 | 4.0 | 0.00 | 0.00 | 0.00 | 89 | 1010.6 |
| 20260901150520 | 57 | 183 | 0.0 | 4.0 | 0.00 | 0.00 | 0.00 | 89 | 1010.5 |
| 20260901150043 | 57 | 183 | 0.0 | 4.0 | 0.00 | 0.00 | 0.00 | 89 | 1010.4 |
| 20260901145521 | 56 | 0 | 0.0 | 2.0 | 0.00 | 0.00 | 0.00 | 89 | 1010.4 |
| 20260901145020 | 56 | 0 | 0.0 | 0.0 | 0.00 | 0.00 | 0.00 | 89 | 1010.4 |
| 20260901144541 | 56 | 0 | 0.0 | 0.0 | 0.00 | 0.00 | 0.00 | 89 | 1010.4 |
| 20260901144022 | 55 | 0 | 0.0 | 0.0 | 0.00 | 0.00 | 0.00 | 89 | 1010.3 |
| 20260901143517 | 55 | 0 | 0.0 | 0.0 | 0.00 | 0.00 | 0.00 | 89 | 1010.3 |
| 20260901143040 | 55 | 0 | 0.0 | 0.0 | 0.00 | 0.00 | 0.00 | 89 | 1010.4 |
| 20260901142518 | 55 | 0 | 0.0 | 0.0 | 0.00 | 0.00 | 0.00 | 89 | 1010.4 |
| 20260901142023 | 55 | 0 | 0.0 | 0.0 | 0.00 | 0.00 | 0.00 | 89 | 1010.3 |
| 20260901141535 | 54 | 0 | 0.0 | 0.0 | 0.00 | 0.00 | 0.00 | 89 | 1010.3 |
| 20260901141026 | 54 | 0 | 0.0 | 0.0 | 0.00 | 0.00 | 0.00 | 89 | 1010.3 |
| 20260901140521 | 54 | 0 | 0.0 | 0.0 | 0.00 | 0.00 | 0.00 | 89 | 1010.3 |
| 20260901140037 | 54 | 0 | 0.0 | 0.0 | 0.00 | 0.00 | 0.00 | 89 | 1010.4 |
| 20260901135521 | 53 | 0 | 0.0 | 0.0 | 0.00 | 0.00 | 0.00 | 89 | 1010.2 |
| 20260901135024 | 53 | 0 | 0.0 | 0.0 | 0.00 | 0.00 | 0.00 | 89 | 1010.2 |
| 20260901134540 | 53 | 0 | 0.0 | 0.0 | 0.00 | 0.00 | 0.00 | 89 | 1010.2 |
| 20260901134024 | 52 | 0 | 0.0 | 0.0 | 0.00 | 0.00 | 0.00 | 89 | 1010.1 |
| 20260901133521 | 52 | 0 | 0.0 | 0.0 | 0.00 | 0.00 | 0.00 | 89 | 1010.3 |
| 20260901133046 | 52 | 0 | 0.0 | 0.0 | 0.00 | 0.00 | 0.00 | 89 | 1010.3 |
| 20260901132521 | 52 | 0 | 0.0 | 0.0 | 0.00 | 0.00 | 0.00 | 89 | 1010.3 |
| 20260901132021 | 52 | 0 | 0.0 | 0.0 | 0.00 | 0.00 | 0.00 | 89 | 1010.2 |
| 20260901131540 | 51 | 0 | 0.0 | 0.0 | 0.00 | 0.00 | 0.00 | 89 | 1010.2 |
| 20260901131020 | 51 | 0 | 0.0 | 0.0 | 0.00 | 0.00 | 0.00 | 88 | 1010.1 |
| 20260901130520 | 51 | 0 | 0.0 | 0.0 | 0.00 | 0.00 | 0.00 | 88 | 1010.2 |
| 20260901130040 | 51 | 0 | 0.0 | 0.0 | 0.00 | 0.00 | 0.00 | 88 | 1010.2 |
| 20260901125523 | 51 | 0 | 0.0 | 0.0 | 0.00 | 0.00 | 0.00 | 88 | 1010.2 |
| 20260901125023 | 51 | 0 | 0.0 | 0.0 | 0.00 | 0.00 | 0.00 | 88 | 1010.1 |
| 20260901124536 | 51 | 0 | 0.0 | 0.0 | 0.00 | 0.00 | 0.00 | 88 | 1010.1 |
| 20260901124021 | 51 | 0 | 0.0 | 0.0 | 0.00 | 0.00 | 0.00 | 88 | 1010.2 |
| 20260901123521 | 51 | 0 | 0.0 | 0.0 | 0.00 | 0.00 | 0.00 | 88 | 1010.1 |
| 20260901123040 | 51 | 0 | 0.0 | 0.0 | 0.00 | 0.00 | 0.00 | 88 | 1010.1 |
| 20260901122522 | 51 | 0 | 0.0 | 0.0 | 0.00 | 0.00 | 0.00 | 88 | 1010.1 |
| 20260901122020 | 52 | 0 | 0.0 | 0.0 | 0.00 | 0.00 | 0.00 | 88 | 1010.1 |
| 20260901121540 | 51 | 0 | 0.0 | 0.0 | 0.00 | 0.00 | 0.00 | 88 | 1010.1 |
| 20260901121020 | 51 | 0 | 0.0 | 0.0 | 0.00 | 0.00 | 0.00 | 88 | 1010.1 |
| 20260901120521 | 51 | 0 | 0.0 | 0.0 | 0.00 | 0.00 | 0.00 | 88 | 1009.9 |
| 20260901120047 | 51 | 0 | 0.0 | 0.0 | 0.00 | 0.00 | 0.00 | 88 | 1009.9 |
| 20260901115524 | 52 | 0 | 0.0 | 0.0 | 0.00 | 0.00 | 0.00 | 88 | 1009.9 |
| 20260901115021 | 52 | 0 | 0.0 | 0.0 | 0.00 | 0.00 | 0.00 | 88 | 1009.9 |
| 20260901114536 | 52 | 0 | 0.0 | 0.0 | 0.00 | 0.00 | 0.00 | 88 | 1009.9 |
| 20260901114020 | 52 | 0 | 0.0 | 0.0 | 0.00 | 0.00 | 0.00 | 88 | 1009.9 |
| 20260901113521 | 52 | 0 | 0.0 | 0.0 | 0.00 | 0.00 | 0.00 | 88 | 1009.9 |
| 20260901113041 | 52 | 0 | 0.0 | 0.0 | 0.00 | 0.00 | 0.00 | 88 | 1009.8 |
| 20260901112518 | 52 | 0 | 0.0 | 0.0 | 0.00 | 0.00 | 0.00 | 88 | 1009.9 |
| 20260901112024 | 52 | 0 | 0.0 | 0.0 | 0.00 | 0.00 | 0.00 | 88 | 1009.8 |
| 20260901111537 | 52 | 0 | 0.0 | 0.0 | 0.00 | 0.00 | 0.00 | 88 | 1009.7 |
| 20260901111020 | 52 | 0 | 0.0 | 0.0 | 0.00 | 0.00 | 0.00 | 87 | 1009.7 |
| 20260901110518 | 52 | 0 | 0.0 | 0.0 | 0.00 | 0.00 | 0.00 | 87 | 1009.5 |
| 20260901110036 | 52 | 0 | 0.0 | 0.0 | 0.00 | 0.00 | 0.00 | 87 | 1009.5 |
| 20260901105521 | 52 | 0 | 0.0 | 0.0 | 0.00 | 0.00 | 0.00 | 87 | 1009.5 |
| 20260901105020 | 52 | 0 | 0.0 | 0.0 | 0.00 | 0.00 | 0.00 | 87 | 1009.5 |
| 20260901104545 | 52 | 0 | 0.0 | 0.0 | 0.00 | 0.00 | 0.00 | 87 | 1009.5 |
| 20260901104021 | 52 | 0 | 0.0 | 0.0 | 0.00 | 0.00 | 0.00 | 87 | 1009.5 |
| 20260901103519 | 52 | 0 | 0.0 | 0.0 | 0.00 | 0.00 | 0.00 | 87 | 1009.5 |
| 20260901103037 | 52 | 0 | 0.0 | 0.0 | 0.00 | 0.00 | 0.00 | 86 | 1009.6 |
| 20260901102517 | 52 | 0 | 0.0 | 0.0 | 0.00 | 0.00 | 0.00 | 86 | 1009.5 |
| 20260901102019 | 52 | 0 | 0.0 | 0.0 | 0.00 | 0.00 | 0.00 | 86 | 1009.5 |
| 20260901101544 | 53 | 0 | 0.0 | 0.0 | 0.00 | 0.00 | 0.00 | 86 | 1009.5 |
| 20260901101018 | 53 | 0 | 0.0 | 0.0 | 0.00 | 0.00 | 0.00 | 86 | 1009.5 |
| 20260901100518 | 53 | 0 | 0.0 | 0.0 | 0.00 | 0.00 | 0.00 | 86 | 1009.5 |
| 20260901100038 | 53 | 0 | 0.0 | 0.0 | 0.00 | 0.00 | 0.00 | 86 | 1009.4 |
| 20260901095520 | 53 | 0 | 0.0 | 0.0 | 0.00 | 0.00 | 0.00 | 85 | 1009.3 |
| 20260901095021 | 53 | 0 | 0.0 | 0.0 | 0.00 | 0.00 | 0.00 | 85 | 1009.4 |
| 20260901094538 | 53 | 0 | 0.0 | 0.0 | 0.00 | 0.00 | 0.00 | 85 | 1009.2 |
| 20260901094021 | 53 | 0 | 0.0 | 0.0 | 0.00 | 0.00 | 0.00 | 85 | 1009.4 |
| 20260901093524 | 53 | 0 | 0.0 | 0.0 | 0.00 | 0.00 | 0.00 | 85 | 1009.4 |
| 20260901093036 | 54 | 0 | 0.0 | 0.0 | 0.00 | 0.00 | 0.00 | 85 | 1009.4 |
| 20260901092519 | 54 | 0 | 0.0 | 0.0 | 0.00 | 0.00 | 0.00 | 85 | 1009.5 |
| 20260901092022 | 54 | 0 | 0.0 | 0.0 | 0.00 | 0.00 | 0.00 | 85 | 1009.6 |
| 20260901091543 | 54 | 0 | 0.0 | 0.0 | 0.00 | 0.00 | 0.00 | 84 | 1009.5 |
| 20260901091025 | 54 | 0 | 0.0 | 0.0 | 0.00 | 0.00 | 0.00 | 84 | 1009.5 |
| 20260901090520 | 54 | 0 | 0.0 | 0.0 | 0.00 | 0.00 | 0.00 | 84 | 1009.5 |
| 20260901090036 | 54 | 0 | 0.0 | 0.0 | 0.00 | 0.00 | 0.00 | 83 | 1009.5 |
| 20260901085520 | 54 | 0 | 0.0 | 0.0 | 0.00 | 0.00 | 0.00 | 83 | 1009.5 |
| 20260901085022 | 55 | 0 | 0.0 | 0.0 | 0.00 | 0.00 | 0.00 | 83 | 1009.6 |
| 20260901084538 | 55 | 0 | 0.0 | 0.0 | 0.00 | 0.00 | 0.00 | 83 | 1009.6 |
| 20260901084021 | 55 | 0 | 0.0 | 0.0 | 0.00 | 0.00 | 0.00 | 83 | 1009.5 |
| 20260901083519 | 55 | 0 | 0.0 | 0.0 | 0.00 | 0.00 | 0.00 | 82 | 1009.5 |
| 20260901083033 | 55 | 0 | 0.0 | 0.0 | 0.00 | 0.00 | 0.00 | 82 | 1009.5 |
| 20260901082519 | 56 | 0 | 0.0 | 0.0 | 0.00 | 0.00 | 0.00 | 82 | 1009.5 |
| 20260901082016 | 56 | 0 | 0.0 | 0.0 | 0.00 | 0.00 | 0.00 | 82 | 1009.4 |
| 20260901081535 | 56 | 0 | 0.0 | 0.0 | 0.00 | 0.00 | 0.00 | 81 | 1009.4 |
| 20260901081021 | 56 | 0 | 0.0 | 0.0 | 0.00 | 0.00 | 0.00 | 81 | 1009.3 |
| 20260901080519 | 56 | 0 | 0.0 | 0.0 | 0.00 | 0.00 | 0.00 | 81 | 1009.1 |
| 20260901080036 | 56 | 0 | 0.0 | 0.0 | 0.00 | 0.00 | 0.00 | 81 | 1009.2 |
| 20260901075525 | 57 | 0 | 0.0 | 0.0 | 0.00 | 0.00 | 0.00 | 81 | 1009.2 |
| 20260901075026 | 57 | 0 | 0.0 | 0.0 | 0.00 | 0.00 | 0.00 | 80 | 1009.1 |
| 20260901074545 | 57 | 0 | 0.0 | 0.0 | 0.00 | 0.00 | 0.00 | 80 | 1009.0 |
| 20260901074023 | 57 | 0 | 0.0 | 0.0 | 0.00 | 0.00 | 0.00 | 80 | 1009.0 |
| 20260901073524 | 57 | 0 | 0.0 | 0.0 | 0.00 | 0.00 | 0.00 | 80 | 1009.0 |
| 20260901073035 | 58 | 0 | 0.0 | 0.0 | 0.00 | 0.00 | 0.00 | 79 | 1009.0 |
| 20260901072519 | 58 | 0 | 0.0 | 0.0 | 0.00 | 0.00 | 0.00 | 79 | 1009.0 |
| 20260901072025 | 58 | 0 | 0.0 | 0.0 | 0.00 | 0.00 | 0.00 | 79 | 1009.0 |
| 20260901071538 | 58 | 0 | 0.0 | 0.0 | 0.00 | 0.00 | 0.00 | 79 | 1009.1 |
| 20260901071021 | 58 | 0 | 0.0 | 0.0 | 0.00 | 0.00 | 0.00 | 78 | 1009.0 |
| 20260901070521 | 59 | 0 | 0.0 | 0.0 | 0.00 | 0.00 | 0.00 | 78 | 1009.0 |
| 20260901070037 | 59 | 0 | 0.0 | 0.0 | 0.00 | 0.00 | 0.00 | 78 | 1009.0 |
| 20260901065518 | 59 | 0 | 0.0 | 0.0 | 0.00 | 0.00 | 0.00 | 77 | 1008.9 |
| 20260901065018 | 59 | 0 | 0.0 | 0.0 | 0.00 | 0.00 | 0.00 | 77 | 1008.8 |
| 20260901064539 | 60 | 0 | 0.0 | 0.0 | 0.00 | 0.00 | 0.00 | 76 | 1008.7 |
| 20260901064021 | 60 | 0 | 0.0 | 0.0 | 0.00 | 0.00 | 0.00 | 76 | 1008.8 |
| 20260901063520 | 60 | 0 | 0.0 | 0.0 | 0.00 | 0.00 | 0.00 | 76 | 1008.8 |
| 20260901063038 | 60 | 0 | 0.0 | 0.0 | 0.00 | 0.00 | 0.00 | 75 | 1008.8 |
| 20260901062518 | 61 | 0 | 0.0 | 0.0 | 0.00 | 0.00 | 0.00 | 75 | 1008.8 |
| 20260901062022 | 61 | 0 | 0.0 | 0.0 | 0.00 | 0.00 | 0.00 | 74 | 1008.7 |
| 20260901061544 | 61 | 0 | 0.0 | 0.0 | 0.00 | 0.00 | 0.00 | 74 | 1008.8 |
| 20260901061021 | 61 | 0 | 0.0 | 0.0 | 0.00 | 0.00 | 0.00 | 74 | 1008.8 |
| 20260901060521 | 62 | 0 | 0.0 | 0.0 | 0.00 | 0.00 | 0.00 | 74 | 1008.7 |
| 20260901060035 | 62 | 0 | 0.0 | 0.0 | 0.00 | 0.00 | 0.00 | 74 | 1008.7 |
| 20260901055520 | 62 | 0 | 0.0 | 0.0 | 0.00 | 0.00 | 0.00 | 74 | 1008.7 |
| 20260901055021 | 62 | 0 | 0.0 | 0.0 | 0.00 | 0.00 | 0.00 | 73 | 1008.8 |
| 20260901054541 | 62 | 0 | 0.0 | 0.0 | 0.00 | 0.00 | 0.00 | 73 | 1008.8 |
| 20260901054020 | 63 | 0 | 0.0 | 0.0 | 0.00 | 0.00 | 0.00 | 73 | 1008.9 |
| 20260901053520 | 63 | 0 | 0.0 | 0.0 | 0.00 | 0.00 | 0.00 | 73 | 1008.8 |
| 20260901053041 | 63 | 0 | 0.0 | 0.0 | 0.00 | 0.00 | 0.00 | 73 | 1009.0 |
| 20260901052522 | 63 | 0 | 0.0 | 0.0 | 0.00 | 0.00 | 0.00 | 72 | 1008.9 |
| 20260901052023 | 63 | 0 | 0.0 | 0.0 | 0.00 | 0.00 | 0.00 | 72 | 1008.9 |
| 20260901051540 | 63 | 0 | 0.0 | 0.0 | 0.00 | 0.00 | 0.00 | 72 | 1008.9 |
| 20260901051021 | 63 | 0 | 0.0 | 0.0 | 0.00 | 0.00 | 0.00 | 71 | 1009.0 |
| 20260901050521 | 64 | 0 | 0.0 | 0.0 | 0.00 | 0.00 | 0.00 | 72 | 1009.0 |
| 20260901050041 | 64 | 0 | 0.0 | 0.0 | 0.00 | 0.00 | 0.00 | 72 | 1009.0 |
| 20260901045520 | 64 | 0 | 0.0 | 0.0 | 0.00 | 0.00 | 0.00 | 72 | 1008.9 |
| 20260901045027 | 64 | 0 | 0.0 | 0.0 | 0.00 | 0.00 | 0.00 | 72 | 1009.0 |
| 20260901044540 | 64 | 0 | 0.0 | 0.0 | 0.00 | 0.00 | 0.00 | 72 | 1008.9 |
| 20260901044019 | 65 | 0 | 0.0 | 0.0 | 0.00 | 0.00 | 0.00 | 71 | 1008.9 |
| 20260901043521 | 65 | 0 | 0.0 | 0.0 | 0.00 | 0.00 | 0.00 | 71 | 1008.9 |
| 20260901043044 | 65 | 0 | 0.0 | 0.0 | 0.00 | 0.00 | 0.00 | 71 | 1008.8 |
| 20260901042525 | 65 | 0 | 0.0 | 0.0 | 0.00 | 0.00 | 0.00 | 71 | 1008.7 |
| 20260901042020 | 66 | 0 | 0.0 | 0.0 | 0.00 | 0.00 | 0.00 | 71 | 1008.7 |
| 20260901041540 | 66 | 0 | 0.0 | 0.0 | 0.00 | 0.00 | 0.00 | 71 | 1008.7 |
| 20260901041021 | 66 | 0 | 0.0 | 0.0 | 0.00 | 0.00 | 0.00 | 71 | 1008.6 |
| 20260901040518 | 66 | 0 | 0.0 | 0.0 | 0.00 | 0.00 | 0.00 | 70 | 1008.6 |
| 20260901040046 | 67 | 0 | 0.0 | 0.0 | 0.00 | 0.00 | 0.00 | 70 | 1008.6 |
| 20260901035521 | 67 | 0 | 0.0 | 0.0 | 0.00 | 0.00 | 0.00 | 70 | 1008.5 |
| 20260901035018 | 67 | 0 | 0.0 | 0.0 | 0.00 | 0.00 | 0.00 | 70 | 1008.5 |
| 20260901034547 | 68 | 0 | 0.0 | 0.0 | 0.00 | 0.00 | 0.00 | 69 | 1008.4 |
| 20260901034021 | 68 | 0 | 0.0 | 0.0 | 0.00 | 0.00 | 0.00 | 68 | 1008.3 |
| 20260901033523 | 68 | 0 | 0.0 | 0.0 | 0.00 | 0.00 | 0.00 | 67 | 1008.2 |
| 20260901033058 | 69 | 0 | 0.0 | 0.0 | 0.00 | 0.00 | 0.00 | 66 | 1008.1 |
| 20260901032516 | 69 | 0 | 0.0 | 0.0 | 0.00 | 0.00 | 0.00 | 65 | 1008.1 |
| 20260901032020 | 70 | 0 | 0.0 | 0.0 | 0.00 | 0.00 | 0.00 | 65 | 1008.0 |
| 20260901031601 | 70 | 0 | 0.0 | 0.0 | 0.00 | 0.00 | 0.00 | 64 | 1008.0 |
| 20260901031027 | 71 | 0 | 0.0 | 0.0 | 0.00 | 0.00 | 0.00 | 63 | 1008.0 |
| 20260901030520 | 71 | 0 | 0.0 | 0.0 | 0.00 | 0.00 | 0.00 | 63 | 1007.9 |
| 20260901030042 | 72 | 0 | 0.0 | 0.0 | 0.00 | 0.00 | 0.00 | 62 | 1007.8 |
| 20260901025522 | 72 | 0 | 0.0 | 0.0 | 0.00 | 0.00 | 0.00 | 61 | 1007.8 |
| 20260901025020 | 72 | 0 | 0.0 | 0.0 | 0.00 | 0.00 | 0.00 | 61 | 1007.7 |
| 20260901024537 | 73 | 0 | 0.0 | 0.0 | 0.00 | 0.00 | 0.00 | 61 | 1007.7 |
| 20260901024016 | 73 | 0 | 0.0 | 0.0 | 0.00 | 0.00 | 0.00 | 60 | 1007.6 |
| 20260901023523 | 74 | 0 | 0.0 | 0.0 | 0.00 | 0.00 | 0.00 | 60 | 1007.6 |
| 20260901023036 | 74 | 0 | 0.0 | 0.0 | 0.00 | 0.00 | 0.00 | 59 | 1007.7 |
| 20260901022525 | 74 | 0 | 0.0 | 0.0 | 0.00 | 0.00 | 0.00 | 58 | 1007.7 |
| 20260901022021 | 75 | 0 | 0.0 | 0.0 | 0.00 | 0.00 | 0.00 | 58 | 1007.7 |
| 20260901021538 | 75 | 0 | 0.0 | 0.0 | 0.00 | 0.00 | 0.00 | 58 | 1007.7 |
| 20260901021022 | 76 | 0 | 0.0 | 0.0 | 0.00 | 0.00 | 0.00 | 57 | 1007.7 |
| 20260901020521 | 76 | 0 | 0.0 | 0.0 | 0.00 | 0.00 | 0.00 | 57 | 1007.8 |
| 20260901020038 | 76 | 0 | 0.0 | 0.0 | 0.00 | 0.00 | 0.00 | 56 | 1007.8 |
| 20260901015520 | 77 | 0 | 0.0 | 0.0 | 0.00 | 0.00 | 0.00 | 56 | 1007.8 |
| 20260901015019 | 77 | 0 | 0.0 | 0.0 | 0.00 | 0.00 | 0.00 | 55 | 1007.9 |
| 20260901014543 | 77 | 0 | 0.0 | 0.0 | 0.00 | 0.00 | 0.00 | 53 | 1007.8 |
| 20260901014021 | 78 | 0 | 0.0 | 0.0 | 0.00 | 0.00 | 0.00 | 53 | 1007.8 |
| 20260901013521 | 78 | 0 | 0.0 | 2.0 | 0.00 | 0.00 | 0.00 | 52 | 1007.9 |
| 20260901013042 | 78 | 0 | 0.0 | 2.0 | 0.00 | 0.00 | 0.00 | 51 | 1007.9 |
| 20260901012520 | 78 | 0 | 0.0 | 2.0 | 0.00 | 0.00 | 0.00 | 52 | 1007.9 |
| 20260901012018 | 79 | 0 | 0.0 | 2.0 | 0.00 | 0.00 | 0.00 | 52 | 1007.9 |
| 20260901011537 | 79 | 0 | 0.0 | 2.0 | 0.00 | 0.00 | 0.00 | 49 | 1007.9 |
| 20260901011020 | 79 | 0 | 0.0 | 2.0 | 0.00 | 0.00 | 0.00 | 50 | 1008.0 |
| 20260901010516 | 80 | 0 | 0.0 | 2.0 | 0.00 | 0.00 | 0.00 | 49 | 1008.0 |
| 20260901010040 | 80 | 0 | 0.0 | 2.0 | 0.00 | 0.00 | 0.00 | 50 | 1008.1 |
| 20260901005521 | 80 | 0 | 0.0 | 2.0 | 0.00 | 0.00 | 0.00 | 51 | 1008.1 |
| 20260901005020 | 80 | 225 | 0.0 | 2.0 | 0.00 | 0.00 | 0.00 | 48 | 1008.0 |
| 20260901004538 | 80 | 118 | 0.0 | 2.0 | 0.00 | 0.00 | 0.00 | 50 | 1008.1 |
| 20260901004020 | 80 | 0 | 0.0 | 2.0 | 0.00 | 0.00 | 0.00 | 53 | 1008.1 |
| 20260901003520 | 80 | 0 | 0.0 | 1.0 | 0.00 | 0.00 | 0.00 | 51 | 1008.0 |
| 20260901003047 | 80 | 0 | 0.0 | 1.0 | 0.00 | 0.00 | 0.00 | 51 | 1008.1 |
| 20260901002521 | 81 | 0 | 0.0 | 2.0 | 0.00 | 0.00 | 0.00 | 50 | 1008.0 |
| 20260901002019 | 81 | 0 | 0.0 | 2.0 | 0.00 | 0.00 | 0.00 | 48 | 1008.0 |
| 20260901001553 | 81 | 323 | 0.0 | 2.0 | 0.00 | 0.00 | 0.00 | 49 | 1008.2 |
| 20260901001020 | 80 | 0 | 0.0 | 2.0 | 0.00 | 0.00 | 0.00 | 50 | 1008.2 |
| 20260901000520 | 80 | 0 | 0.0 | 3.0 | 0.00 | 0.00 | 0.00 | 48 | 1008.3 |